Wind_Speed
42 43 43 43 43 42 41 40 39 38 38 39 42 44 46 46 45 43 42 41 40 39 38 38 38 37 36 36 36 36 37 37 37 37 36 37 38 39 40 41 42 43
40 41 42 43 43 43 42 40 39 38 38 39 41 44 46 47 47 46 45 44 44 42 40 39 38 37 37 37 38 38 39 39 39 39 39 40 40 41 41 42 44 44
34 33 34 36 37 38 38 37 37 37 38 39 41 44 46 48 48 48 47 46 46 45 44 43 42 41 41 41 41 41 41 42 43 43 44 44 44 44 44 44 45 46
27 27 29 31 32 33 34 35 35 35 36 38 39 42 45 47 48 49 49 48 47 46 45 44 44 43 43 43 43 44 44 45 46 47 47 47 47 47 47 47 48 49
27 29 32 33 34 34 34 35 35 35 35 36 37 40 42 45 46 47 47 47 47 46 45 44 44 44 44 44 45 45 47 47 48 49 49 49 49 49 49 49 49 49
30 31 32 33 34 35 35 36 36 36 37 38 39 41 43 45 46 47 47 47 46 46 46 46 46 46 46 46 46 47 48 48 49 50 50 50 50 50 50 50 49 49
30 32 33 33 33 34 35 37 39 40 42 43 46 47 47 46 47 48 48 49 49 49 49 49 49 49 49 48 48 49 49 49 50 50 50 50 50 50 50 50 50 50
33 35 37 38 39 38 38 40 42 45 47 49 51 51 50 49 49 49 49 50 50 51 51 51 51 50 50 50 50 50 50 50 50 50 50 50 50 51 51 51 52 52
42 44 46 47 48 47 46 46 46 48 50 52 53 52 52 51 50 50 50 50 50 50 50 51 51 51 50 50 50 50 50 50 51 51 51 52 52 53 53 54 54 54
50 51 50 49 49 50 51 51 51 52 52 52 52 52 52 51 51 51 51 51 51 50 50 50 51 51 51 51 52 52 52 52 53 53 53 53 54 55 55 56 56 57
47 44 43 43 44 46 48 50 51 51 51 50 50 50 50 51 51 51 51 51 51 51 51 51 52 52 52 52 53 53 53 54 54 54 55 55 56 57 58 59 59 60
35 36 38 41 45 48 49 50 49 49 50 51 51 50 50 50 50 50 51 51 52 52 53 53 54 54 54 54 55 55 55 55 56 56 56 57 58 58 59 60 61 61
39 40 44 47 50 52 51 51 51 50 50 51 52 52 51 51 51 51 52 53 53 53 53 54 54 54 55 55 55 56 56 56 57 57 57 58 58 59 59 60 60 60
46 47 49 47 46 46 46 48 49 51 52 52 52 53 53 53 53 53 54 54 54 54 54 54 54 54 55 55 56 56 57 57 58 58 59 59 59 60 60 60 59 58
48 48 46 40 39 41 44 46 47 49 52 53 53 53 54 54 55 56 56 56 56 56 56 55 55 55 55 56 57 57 58 59 59 60 60 61 61 61 60 59 57 56
50 48 44 40 40 41 42 44 45 47 49 51 52 53 55 56 57 58 58 58 58 57 57 57 58 58 57 56 57 57 59 59 60 60 61 61 61 61 60 59 58 58
48 47 46 44 42 41 43 44 46 49 51 52 53 55 57 59 59 59 59 59 59 60 60 61 62 61 61 60 58 59 60 61 61 61 61 61 61 61 61 60 59 59
53 55 55 51 47 48 53 54 53 55 57 59 60 62 63 63 63 62 61 61 61 62 63 64 65 65 65 64 63 63 64 64 64 64 64 64 64 63 62 61 59 60
63 65 65 61 58 59 64 66 65 65 67 69 71 72 71 70 70 69 68 66 65 65 65 66 67 68 68 68 68 68 68 67 66 67 67 67 66 65 63 62 62 64
70 70 69 68 68 68 71 73 74 75 76 76 76 74 73 72 72 72 71 70 69 69 69 69 70 70 71 71 72 72 71 69 67 66 66 66 65 65 65 65 66 67
73 72 72 72 72 73 74 76 77 78 78 77 75 74 73 72 72 71 71 71 71 71 70 71 71 71 72 72 73 73 72 70 68 67 66 66 66 67 67 68 68 67
74 73 73 72 72 73 74 74 75 76 76 75 74 74 73 72 72 72 72 72 72 71 71 71 71 71 71 72 72 72 71 70 70 69 69 69 69 69 70 70 69 69
76 75 74 73 72 72 72 72 73 74 74 74 74 74 74 73 73 73 73 73 72 72 72 72 72 72 72 72 72 72 72 71 71 70 70 71 72 72 72 72 72 71
79 78 76 75 74 73 73 72 73 73 74 74 75 75 75 75 75 74 74 74 73 73 73 72 73 73 73 73 73 73 73 73 73 72 71 71 73 75 75 75 75 74
81 80 79 77 75 74 74 74 74 74 74 74 75 75 75 76 76 76 75 75 75 75 74 74 74 75 75 76 76 76 76 76 75 75 75 75 76 77 77 77 76 76
80 79 79 78 76 75 75 74 74 75 75 75 75 76 77 77 77 77 77 77 77 77 77 76 76 76 77 77 76 76 75 75 74 74 74 75 76 75 75 75 75 75
Wind_Direction
265 266 268 272 274 276 278 279 278 277 274 271 270 269 268 268 268 268 267 268 269 270 269 269 267 267 267 267 268 268 268 269 268 267 267 266 266 267 267 267 267 267
270 271 272 274 276 277 278 277 276 275 274 272 270 269 268 268 268 268 268 269 270 270 271 270 268 268 268 269 269 269 269 269 269 269 269 268 268 268 268 268 268 267
273 275 277 278 278 278 278 278 276 275 273 271 269 269 268 268 268 269 269 270 271 271 271 270 269 270 270 270 270 270 269 269 270 270 270 270 269 269 268 268 268 268
271 275 280 284 284 283 282 281 280 277 274 272 270 269 269 269 269 270 270 271 271 271 271 271 270 270 271 271 271 271 271 270 270 271 271 271 271 270 270 270 270 270
274 279 282 284 285 284 284 283 281 279 277 276 274 272 271 271 271 271 271 271 270 270 270 270 271 271 272 272 272 273 272 272 272 271 271 271 272 272 272 272 272 272
277 282 284 284 283 282 280 279 279 279 279 278 277 276 275 273 272 271 270 270 269 270 270 270 271 272 272 273 273 273 273 273 273 273 273 272 273 273 273 274 274 275
275 279 280 281 281 278 275 273 274 275 277 278 279 278 276 274 272 271 270 270 270 271 272 272 272 273 273 273 273 273 273 274 274 274 274 274 275 275 276 277 277 277
271 272 273 275 276 275 274 272 272 272 275 278 278 277 274 273 272 271 271 271 271 272 273 273 273 273 273 273 273 273 273 274 274 274 275 276 276 277 278 278 279 279
272 272 273 274 273 273 274 274 274 276 277 278 276 274 273 272 272 272 272 272 272 272 272 273 273 273 273 273 273 273 274 274 275 275 276 276 277 278 279 280 280 281
275 276 276 275 272 272 274 276 278 280 280 278 276 274 273 273 273 273 273 274 274 274 274 274 274 275 275 276 276 277 278 278 278 279 279 279 280 281 281 282 282 283
274 276 277 276 275 276 279 281 281 280 278 276 276 275 274 273 273 273 273 273 273 273 272 273 273 274 275 275 276 277 278 279 279 280 280 281 281 282 282 283 283 284
268 273 278 280 283 285 285 284 282 279 276 273 272 273 273 272 272 272 272 272 272 272 272 272 273 273 274 274 275 276 276 277 277 278 278 279 280 281 282 283 284 284
263 270 277 282 285 286 285 284 282 279 275 271 269 270 270 270 271 271 271 272 272 273 274 274 274 275 275 275 276 277 277 278 278 278 278 279 280 281 283 284 284 284
261 268 275 280 282 281 280 280 278 276 274 271 269 268 268 269 270 270 272 273 274 274 274 275 275 276 277 277 277 277 278 278 279 279 280 281 282 283 285 285 285 284
262 269 273 276 277 274 273 274 273 272 272 270 269 269 269 269 270 271 272 273 274 274 274 274 274 275 276 277 278 279 279 279 280 280 281 282 284 285 285 284 284 283
264 268 267 267 273 274 270 268 268 269 269 268 268 269 270 270 271 272 272 273 274 273 273 273 273 273 275 276 279 280 280 280 281 282 282 283 284 284 284 283 283 282
265 270 268 265 267 270 268 266 266 267 265 264 266 270 272 272 272 272 272 272 272 272 272 272 272 273 274 275 277 279 279 280 280 281 282 282 282 283 283 284 283 282
266 271 272 267 260 259 262 264 267 268 266 264 267 272 274 275 274 273 273 273 272 272 272 272 272 272 273 274 276 278 280 280 280 280 281 281 282 282 283 283 282 282
266 268 269 267 261 257 259 262 264 267 267 268 271 273 275 275 274 274 274 274 272 272 272 272 272 272 273 274 276 278 280 281 281 281 282 282 282 283 282 282 282 282
266 266 266 265 264 262 261 261 262 264 267 270 271 272 273 273 273 273 274 273 273 272 272 272 272 272 273 275 276 277 279 280 280 280 281 282 282 282 282 282 282 283
265 265 265 265 266 266 265 264 264 266 268 270 271 272 272 272 271 272 272 272 273 273 273 273 273 274 274 276 277 278 278 279 279 279 279 279 279 279 279 280 280 281
265 266 267 267 267 267 267 266 267 267 269 270 271 271 272 272 272 271 271 271 272 272 273 273 274 275 275 276 277 278 279 279 279 280 279 279 279 278 278 278 278 279
266 266 267 267 267 267 266 266 266 267 268 268 269 270 271 271 271 271 271 271 272 272 273 273 274 275 276 276 277 277 278 279 279 279 279 279 279 279 278 278 278 278
265 266 266 266 266 266 266 265 266 266 267 268 269 270 271 271 271 272 272 273 273 273 274 274 275 275 276 276 276 277 277 277 277 277 277 277 277 278 278 278 278 278
265 265 265 265 264 264 265 265 266 266 267 268 269 270 271 272 273 274 274 274 275 275 275 275 275 275 276 276 276 276 276 277 277 277 276 276 276 276 277 277 277 276
263 264 264 264 264 264 265 265 266 267 268 269 270 271 272 273 274 275 275 276 276 276 276 276 276 276 276 277 277 277 276 276 275 275 275 275 275 275 275 276 275 275
Height
10628 10629 10629 10629 10629 10629 10630 10630 10631 10631 10632 10632 10632 10632 10633 10635 10637 10639 10638 10638 10638 10638 10640 10640 10639 10639 10639 10639 10638 10638 10638 10638 10638 10639 10640 10642 10642 10643 10643 10643 10643 10642
10624 10624 10624 10624 10624 10624 10624 10625 10626 10626 10626 10627 10627 10627 10628 10630 10632 10633 10634 10633 10633 10633 10634 10635 10635 10635 10635 10635 10635 10635 10634 10633 10633 10633 10634 10635 10636 10637 10638 10638 10638 10638
10619 10619 10619 10618 10619 10619 10619 10620 10621 10621 10622 10622 10623 10623 10623 10624 10626 10627 10628 10628 10628 10628 10629 10630 10630 10630 10631 10631 10631 10631 10630 10630 10629 10629 10629 10630 10630 10631 10632 10632 10632 10632
10615 10615 10614 10614 10614 10614 10615 10616 10616 10617 10617 10617 10618 10618 10618 10619 10620 10621 10623 10623 10623 10623 10624 10624 10624 10624 10625 10625 10625 10625 10625 10625 10625 10624 10624 10624 10625 10625 10626 10626 10626 10626
10611 10611 10610 10610 10610 10610 10611 10611 10612 10612 10613 10613 10614 10614 10614 10614 10615 10616 10617 10617 10618 10618 10618 10618 10618 10619 10619 10619 10619 10619 10619 10619 10619 10619 10619 10619 10619 10619 10620 10620 10620 10620
10607 10606 10607 10606 10606 10606 10607 10607 10608 10608 10608 10608 10609 10609 10609 10610 10610 10610 10611 10612 10612 10612 10613 10613 10613 10613 10613 10613 10613 10613 10613 10613 10613 10613 10613 10612 10613 10613 10613 10613 10613 10614
10602 10602 10603 10603 10602 10602 10603 10603 10604 10603 10604 10604 10604 10604 10604 10604 10604 10604 10605 10606 10606 10606 10607 10607 10607 10607 10607 10608 10608 10607 10607 10607 10607 10606 10606 10606 10607 10607 10606 10606 10606 10607
10598 10598 10598 10598 10598 10598 10598 10599 10599 10599 10599 10599 10599 10598 10598 10598 10598 10598 10599 10599 10600 10600 10600 10600 10601 10601 10602 10602 10602 10601 10601 10601 10601 10600 10600 10600 10600 10600 10600 10599 10599 10600
10592 10591 10592 10592 10592 10592 10593 10593 10594 10594 10594 10594 10593 10592 10591 10592 10592 10592 10592 10593 10594 10594 10594 10594 10594 10595 10595 10595 10595 10595 10595 10595 10595 10594 10594 10594 10594 10593 10593 10592 10592 10592
10586 10584 10584 10585 10585 10586 10586 10586 10587 10587 10587 10587 10586 10586 10585 10585 10585 10586 10586 10587 10588 10588 10588 10588 10588 10588 10588 10588 10588 10587 10588 10588 10587 10587 10587 10587 10586 10586 10585 10585 10584 10583
10578 10577 10577 10577 10579 10579 10579 10580 10580 10579 10579 10580 10579 10579 10579 10579 10580 10580 10580 10581 10582 10582 10582 10582 10582 10582 10583 10582 10582 10581 10581 10581 10580 10580 10580 10579 10579 10578 10577 10577 10576 10575
10571 10570 10571 10572 10572 10573 10573 10573 10573 10573 10573 10573 10573 10573 10573 10573 10574 10574 10574 10575 10575 10576 10576 10576 10576 10576 10576 10576 10576 10575 10575 10575 10574 10573 10573 10573 10572 10571 10570 10570 10569 10567
10566 10566 10566 10567 10567 10566 10566 10566 10566 10567 10567 10567 10567 10567 10567 10567 10568 10568 10568 10569 10569 10569 10569 10569 10569 10569 10569 10569 10569 10568 10568 10567 10567 10566 10566 10566 10565 10564 10563 10562 10561 10560
10561 10561 10561 10561 10562 10561 10560 10559 10559 10560 10560 10560 10561 10561 10561 10562 10562 10562 10562 10563 10563 10563 10563 10562 10562 10562 10561 10561 10561 10561 10561 10560 10559 10558 10558 10558 10558 10557 10556 10554 10553 10552
10557 10556 10555 10555 10555 10554 10553 10553 10552 10553 10554 10555 10556 10556 10556 10556 10557 10557 10557 10557 10557 10557 10556 10556 10555 10555 10554 10554 10554 10554 10553 10553 10552 10551 10551 10551 10550 10549 10548 10547 10546 10545
10552 10552 10551 10550 10548 10546 10546 10547 10546 10546 10548 10548 10550 10550 10551 10551 10551 10551 10551 10551 10550 10550 10549 10549 10548 10547 10547 10547 10547 10546 10545 10545 10544 10544 10544 10543 10542 10541 10540 10539 10539 10537
10547 10547 10547 10548 10546 10540 10537 10539 10540 10540 10540 10541 10541 10543 10543 10544 10545 10545 10545 10545 10544 10543 10542 10541 10541 10540 10539 10539 10539 10538 10537 10537 10537 10537 10537 10536 10535 10534 10532 10532 10531 10530
10541 10542 10544 10546 10546 10539 10532 10531 10532 10532 10533 10533 10533 10534 10535 10537 10537 10538 10538 10538 10537 10536 10535 10533 10532 10532 10531 10531 10530 10529 10529 10529 10529 10528 10528 10528 10527 10526 10526 10525 10523 10522
10536 10537 10538 10540 10542 10538 10531 10527 10526 10525 10525 10526 10526 10527 10527 10528 10528 10529 10530 10529 10529 10528 10527 10525 10524 10523 10523 10522 10522 10522 10521 10521 10520 10519 10519 10519 10519 10518 10518 10516 10515 10513
10530 10531 10532 10532 10533 10532 10528 10524 10521 10519 10518 10518 10519 10520 10520 10520 10520 10520 10520 10520 10520 10519 10518 10517 10516 10515 10515 10514 10513 10513 10513 10513 10513 10512 10511 10511 10510 10510 10509 10507 10506 10504
10522 10523 10524 10524 10524 10523 10521 10518 10516 10514 10512 10511 10511 10511 10511 10511 10511 10511 10511 10510 10510 10510 10509 10508 10507 10507 10506 10505 10504 10504 10504 10504 10504 10504 10504 10503 10502 10502 10501 10499 10498 10497
10513 10513 10514 10515 10515 10514 10513 10511 10509 10507 10505 10503 10502 10502 10502 10502 10502 10502 10502 10502 10502 10501 10501 10500 10500 10499 10498 10498 10497 10496 10495 10496 10495 10495 10495 10493 10493 10492 10491 10491 10491 10491
10504 10505 10505 10506 10506 10505 10504 10502 10501 10499 10497 10496 10494 10493 10493 10493 10493 10493 10493 10493 10493 10493 10493 10492 10492 10491 10491 10490 10490 10489 10488 10488 10488 10488 10486 10484 10482 10481 10481 10481 10481 10482
10495 10495 10496 10496 10496 10495 10494 10493 10491 10490 10489 10487 10486 10485 10484 10484 10484 10484 10485 10485 10484 10484 10485 10485 10484 10483 10482 10482 10481 10481 10481 10480 10480 10480 10480 10477 10473 10472 10472 10472 10471 10472
10484 10485 10485 10486 10486 10486 10485 10484 10483 10481 10480 10479 10478 10476 10475 10474 10474 10475 10475 10475 10475 10475 10475 10475 10475 10473 10472 10472 10471 10471 10471 10471 10471 10471 10470 10468 10465 10464 10463 10463 10463 10462
10474 10474 10474 10475 10476 10476 10476 10475 10474 10473 10472 10471 10470 10468 10467 10466 10466 10466 10465 10464 10464 10464 10464 10464 10464 10463 10462 10461 10461 10461 10460 10460 10460 10461 10460 10458 10456 10456 10455 10454 10454 10453